• MPC Preparation (Info)

  • MPEC 2012-C10 : 2012 BE124

    The following Minor Planet Electronic Circular may be linked-to from your own Web pages, but must not otherwise be redistributed electronically.

    A form allowing access to any MPEC is at the bottom of this page.


    Read MPEC 2012-C09 Read MPEC 2012-C11


    M.P.E.C. 2012-C10                                Issued 2012 Feb. 2, 01:00 UT
    
         The Minor Planet Electronic Circulars contain information on unusual
             minor planets and routine data on comets.  They are published
       on behalf of Commission 20 of the International Astronomical Union by the
              Minor Planet Center, Smithsonian Astrophysical Observatory,
                              Cambridge, MA 02138, U.S.A.
    
                 Prepared using the Tamkin Foundation Computer Network
    
                                  MPC@CFA.HARVARD.EDU
                URL https://www.minorplanetcenter.net/    ISSN 1523-6714
    
                                      2012 BE124
    
    Observations:
         K12BC4E* C2012 01 30.39287 09 43 23.80 +31 26 15.1          20.2 VrEC010G96
         K12BC4E  C2012 01 30.40148 09 43 21.46 +31 26 17.4          20.2 VrEC010G96
         K12BC4E  C2012 01 30.41017 09 43 19.12 +31 26 19.7          20.3 VrEC010G96
         K12BC4E  C2012 01 30.41890 09 43 16.75 +31 26 22.0          20.6 VrEC010G96
         K12BC4E  C2012 01 30.45691 09 43 06.54 +31 26 32.1          19.7 RoEC010H01
         K12BC4E  C2012 01 30.46459 09 43 04.49 +31 26 34.0          19.7 RoEC010H01
         K12BC4E  C2012 01 30.47153 09 43 02.62 +31 26 35.7          19.6 RoEC010H01
         K12BC4E  C2012 01 30.47827 09 43 00.81 +31 26 37.3          19.8 RoEC010H01
         K12BC4E  C2012 01 30.58393 09 42 33.83 +31 27 07.2          20.3 RoEC010300
         K12BC4E  C2012 01 30.59169 09 42 31.75 +31 27 09.2          20.7 RoEC010300
         K12BC4E  C2012 01 30.59539 09 42 30.79 +31 27 10.1          20.6 RoEC010300
         K12BC4E  C2012 01 30.59910 09 42 29.76 +31 27 12.1          20.3 RoEC010300
         K12BC4E KC2012 01 30.89914 09 41 11.11 +31 28 23.8                uEC010J95
         K12BC4E KC2012 01 30.91202 09 41 07.69 +31 28 27.3          20.0 RuEC010J95
         K12BC4E  C2012 01 31.19959 09 39 52.83 +31 29 39.3          19.9 RoEC010H01
         K12BC4E  C2012 01 31.20750 09 39 50.75 +31 29 41.2          20.5 RoEC010H01
         K12BC4E KC2012 01 31.21766 09 39 48.09 +31 29 44.0          20.7 RoEC010H01
         K12BC4E KC2012 01 31.23382 09 39 43.81 +31 29 47.9          20.5 RoEC010H01
         K12BC4E  C2012 02 01.21184 09 35 33.03 +31 33 06.5          20.6 VrEC010G96
         K12BC4E  C2012 02 01.21240 09 35 32.92 +31 33 07.0          20.7 VrEC010G96
         K12BC4E  C2012 02 01.21298 09 35 32.82 +31 33 06.6          20.7 VrEC010G96
         K12BC4E  C2012 02 01.21353 09 35 32.64 +31 33 06.8          21.1 VrEC010G96
         K12BC4E KC2012 02 02.01903 09 32 10.41 +31 35 10.8                uEC010J95
         K12BC4E KC2012 02 02.02405 09 32 09.10 +31 35 11.8                uEC010J95
         K12BC4E KC2012 02 02.02895 09 32 07.89 +31 35 12.8          19.4 RuEC010J95
    
    Observer details:
    300 Bisei Spaceguard Center--BATTeRS.  Observers K. Nishiyama, S. Okumura.
        1.0-m f/3.0 reflector + CCD.
    G96 Mt. Lemmon Survey.  Observers R. A. Kowalski, A. R. Gibbs.  Measurers
        J. D. Ahern, E. C. Beshore, A. Boattini, A. R. Gibbs, A. D. Grauer,
        R. E. Hill, R. A. Kowalski, S. M. Larson, R. H. McNaught.  1.5-m reflector
        + CCD.
    H01 Magdalena Ridge Observatory, Socorro.  Observers W. H. Ryan, E. V. Ryan.
        Measurer W. H. Ryan.  2.4-m f/8.9 reflector + CCD.
    J95 Great Shefford.  Observer P. Birtwhistle.  0.40-m f/6.0 Schmidt-Cassegrain
        + CCD.
    
    Orbital elements:
    2012 BE124                                               Earth MOID = 0.1948 AU
    Epoch 2012 Mar. 14.0 TT = JDT 2456000.5                 MPC
    M  30.70393              (2000.0)            P               Q
    n   0.24099386     Peri.    8.38567     +0.97097833     +0.21449338
    a   2.5574004      Node   338.32854     -0.23267742     +0.74482113
    e   0.9121507      Incl.   16.64859     -0.05533810     +0.63184972
    P   4.09           H   19.3           G   0.15           U   9
    Residuals in seconds of arc
    120130 G96  0.1+  0.6-    120130 300  0.5-  0.4+    120201 G96  0.8-  0.2-
    120130 G96  0.2-  0.6-    120130 300  0.1-  0.3+    120201 G96  0.4-  0.2+
    120130 G96  0.1-  0.6-    120130 300  0.5-  1.2+    120201 G96  0.2+  0.4-
    120130 G96  0.4-  0.6-    120130 J95  0.4+  0.0     120201 G96  0.3-  0.3-
    120130 H01  0.1+  0.1+    120130 J95  0.1+  0.1+    120202 J95  0.4+  0.3-
    120130 H01  0.2+  0.1+    120131 H01  0.0   0.1+    120202 J95  0.3-  0.0
    120130 H01  0.1+  0.0     120131 H01  0.0   0.0     120202 J95  0.0   0.3+
    120130 H01  0.0   0.1-    120131 H01  0.1+  0.2+
    120130 300  0.5-  0.6+    120131 H01  0.2-  0.1+
    
    Ephemeris:
    2012 BE124               a,e,i = 2.56, 0.91, 17                  q = 0.2247
    Date    TT    R. A. (2000) Decl.     Delta      r     Elong.  Phase     V
    2012 01 03    11 58 25.2 +22 47 23   0.5978  1.3154   110.2    44.5    20.5
    ...
    2012 01 18    10 44 06.6 +29 05 42   0.6502  1.5458   141.3    23.4    20.4
    ...
    2012 01 26    10 03 44.0 +30 56 09   0.7123  1.6600   155.8    14.1    20.5
    ...
    2012 02 01    09 36 26.5 +31 32 30   0.7761  1.7423   163.0     9.5    20.6
    2012 02 02    09 32 15.2 +31 35 12   0.7881  1.7558   163.7     9.1    20.6
    2012 02 03    09 28 10.7 +31 37 04   0.8005  1.7692   164.2     8.7    20.7
    ...
    2012 02 09    09 06 12.8 +31 33 18   0.8827  1.8480   162.7     9.1    21.0
    ...
    2012 02 17    08 43 32.9 +31 00 26   1.0108  1.9494   154.5    12.6    21.5
    ...
    2012 03 03    08 18 31.9 +29 23 41   1.2969  2.1293   136.6    18.6    22.5
    
    A. U. Tomatic                (C) Copyright 2012 MPC           M.P.E.C. 2012-C10
    

    Read MPEC 2012-C09 Read MPEC 2012-C11


    MPEC number:

    Enter an MPEC number in one of the following forms:

    • 1997-B01 (the full form)
    • J97B01 (the packed version of the full form)
    • B01 (the abbreviated form)